Temp
10 10 10 10 10 11 11 10 10 10 10 10 10 9 9 8 7 7 7 6 6 5 5 5 5 5 5 4 2 2 2 2 2 2 2 3 3 3 1 2 2 2 3 4 3 3 4
10 10 10 10 10 10 10 10 10 10 10 9 9 8 8 7 7 7 6 6 6 5 5 5 5 5 5 1 2 2 2 2 2 2 2 2 2 2 3 2 2 3 3 3 4 4 4
10 10 10 10 10 10 10 9 9 9 9 9 9 8 7 7 6 7 6 6 6 5 5 5 4 4 4 2 2 2 3 2 2 2 2 2 2 2 2 1 3 3 2 2 3 3 2
9 9 10 10 10 9 9 9 8 8 8 8 8 8 7 7 6 7 7 6 5 4 5 4 4 4 3 2 3 2 2 3 3 3 3 3 3 3 2 3 2 1 1 -2 2 2 2
9 9 9 9 9 9 9 8 8 8 8 8 8 7 7 7 6 7 7 5 5 5 4 4 5 4 3 3 3 2 2 2 2 3 3 3 3 3 2 -1 -3 -1 -5 -2 -0 2 1
9 9 9 9 9 9 8 8 8 8 8 8 8 8 7 7 6 6 6 5 5 5 5 4 4 4 3 2 2 2 2 2 2 2 2 2 3 0 -2 -3 -6 -2 -3 -2 -1 1 1
9 9 9 9 9 8 8 8 8 8 8 7 7 7 6 6 6 6 6 4 4 4 4 2 2 3 2 2 2 2 1 2 1 1 -2 0 -1 -2 -1 -1 -1 -2 -3 -3 -1 1 -0
9 9 9 8 8 7 7 8 8 8 7 7 7 7 6 6 5 6 5 4 1 1 2 2 2 2 2 2 2 2 2 1 -0 -2 -1 -2 -3 0 1 1 -0 -1 -3 -3 -1 0 0
9 8 8 8 7 7 7 8 8 8 8 7 7 7 7 6 5 4 3 2 1 1 2 2 2 2 2 2 2 2 2 1 -0 -2 -3 -4 -1 1 0 -1 -1 -1 -3 -3 -2 -1 -0
8 8 8 7 7 7 7 7 7 8 8 8 7 7 7 7 5 3 3 1 1 2 1 2 3 2 2 3 2 2 1 1 -1 -3 -2 -3 -0 -1 -1 -1 -1 -3 -1 -1 -1 -3 -4
8 8 8 7 7 7 7 7 7 7 7 7 7 6 6 7 5 4 3 1 1 2 3 3 3 2 2 2 2 1 1 1 -2 -2 -4 -3 -2 -2 -1 -0 -0 -2 -1 -2 -2 -3 -8
8 8 7 7 6 6 7 7 7 7 7 7 7 6 6 5 4 3 2 1 1 1 1 2 2 1 0 2 1 2 0 -0 -1 -3 -2 -3 -1 0 0 -0 -0 -1 -3 -2 -3 -6 -10
8 8 7 6 6 6 7 7 7 7 7 7 7 6 5 5 4 4 3 2 2 2 2 1 -1 -1 -1 -1 -0 -0 -2 -6 -5 -7 -5 -4 -2 -1 -0 -2 -1 -4 -4 -5 -9 -7 -7
8 8 7 6 6 6 7 7 7 7 7 7 6 6 5 4 4 4 4 1 1 1 -1 -0 -1 -1 -0 -2 -2 -2 -3 -6 -5 -8 -7 -7 -5 -3 -1 -4 -7 -4 -5 -5 -6 -5 -4
8 7 7 6 6 7 7 7 7 7 7 7 6 5 4 4 4 4 4 -2 -1 -2 -2 -2 -2 -2 -2 -2 -4 -4 -5 -7 -8 -9 -6 -8 -5 -2 -2 -1 -5 -4 -6 -4 -6 -6 -6
8 7 7 7 6 6 7 7 6 7 7 6 5 5 4 4 4 4 -1 -1 -2 -1 -1 -2 -4 -3 -6 -5 -5 -6 -6 -8 -6 -4 -4 -6 -6 -3 -1 -2 -3 -4 -5 -7 -9 -7 -6
7 8 7 6 6 6 6 7 7 7 7 6 5 5 5 5 4 4 -4 -3 -1 -1 -1 -2 -3 -5 -8 -7 -5 -6 -8 -5 -5 -3 -3 -10 -10 -4 -4 -5 -7 -6 -7 -7 -7 -5 -5
7 7 7 6 5 6 6 6 6 7 7 6 5 3 5 5 2 -1 -5 -1 -1 -1 -1 -1 -2 -6 -7 -5 -8 -5 -4 -5 -2 -3 -8 -8 -9 -8 -5 -6 -6 -6 -8 -7 -6 -6 -6
7 7 7 6 5 5 6 6 6 6 6 6 4 3 4 4 -3 -4 -1 -0 -1 -1 -2 -2 -3 -3 -3 -5 -7 -5 -3 -1 -3 -3 -8 -6 -10 -8 -9 -6 -4 -6 -6 -7 -7 -6 -6
7 7 7 6 5 5 5 6 6 6 6 5 3 -1 2 1 -1 -5 -6 -3 -2 -2 -2 -2 -3 -2 -3 -4 -4 -5 -4 -3 -3 -3 -1 -3 -9 -8 -7 -6 -4 -5 -6 -7 -7 -7 -8
7 7 7 5 5 5 5 5 5 5 5 5 3 -1 -1 -5 -3 -2 -3 -6 -2 -3 -3 -3 -3 -3 -7 -9 -5 -5 -4 -4 -3 -2 -4 -7 -9 -6 -4 -4 -5 -7 -7 -7 -7 -7 -8
7 7 7 5 5 5 5 4 5 5 5 5 3 1 -1 -2 -2 -2 -3 -4 -3 -4 -5 -4 -4 -4 -4 -8 -6 -7 -5 -5 -6 -5 -5 -5 -7 -5 -7 -4 -7 -5 -7 -7 -7 -7 -8
7 7 6 6 5 4 4 4 4 4 4 4 2 1 0 -2 -2 -5 -4 -4 -5 -3 -3 -3 -4 -6 -5 -4 -5 -5 -5 -5 -5 -6 -6 -8 -7 -7 -7 -4 -4 -5 -10 -8 -8 -8 -9
6 6 6 6 4 4 4 4 4 4 4 4 3 1 -0 -6 -3 -3 -2 -3 -4 -3 -7 -3 -3 -4 -3 -4 -4 -2 -4 -5 -5 -4 -4 -6 -8 -6 -7 -5 -8 -7 -7 -7 -8 -9 -9
6 6 5 5 4 4 4 3 3 3 3 2 2 2 0 -7 -2 -2 -2 -3 -3 -3 -3 -3 -3 -4 -4 -4 -7 -5 -5 -4 -3 -3 -4 -5 -6 -8 -7 -6 -6 -7 -8 -8 -9 -9 -9
5 5 5 4 4 3 3 3 2 2 2 1 1 1 0 -1 -5 -2 -2 -3 -9 -11 -6 -3 -3 -4 -4 -5 -7 -8 -7 -6 -5 -5 -4 -4 -6 -8 -7 -7 -6 -11 -7 -7 -7 -8 -8
5 5 4 3 3 3 2 2 2 1 1 1 1 0 -0 -3 -3 -3 -3 -6 -4 -5 -11 -5 -5 -5 -4 -8 -7 -8 -7 -6 -8 -7 -10 -10 -11 -10 -8 -9 -8 -8 -8 -6 -9 -8 -10
5 4 4 3 2 1 1 1 1 1 0 0 -0 -1 -1 -3 -4 -4 -4 -4 -5 -5 -11 -5 -7 -6 -8 -10 -9 -11 -11 -11 -11 -7 -10 -13 -12 -11 -9 -11 -10 -8 -8 -10 -10 -10 -11
5 4 4 4 3 1 -0 0 1 0 -0 -1 -1 -1 -2 -3 -4 -5 -4 -5 -5 -5 -5 -5 -6 -6 -6 -11 -12 -13 -9 -12 -14 -11 -9 -11 -12 -12 -9 -8 -8 -9 -10 -10 -11 -11 -11
Height
1557 1557 1557 1557 1556 1554 1553 1551 1549 1547 1545 1542 1539 1536 1534 1530 1528 1524 1521 1519 1518 1516 1515 1515 1515 1515 1515 1515 1521 1520 1517 1511 1507 1502 1500 1498 1497 1497 1498 1496 1494 1490 1487 1485 1481 1482 1480
1558 1558 1558 1557 1556 1555 1554 1552 1550 1548 1545 1543 1539 1537 1534 1530 1528 1524 1521 1520 1519 1519 1517 1517 1517 1517 1515 1518 1522 1519 1515 1510 1505 1501 1499 1499 1499 1499 1497 1497 1497 1491 1488 1482 1480 1477 1475
1559 1559 1559 1558 1558 1556 1555 1553 1551 1548 1546 1543 1540 1537 1534 1531 1528 1525 1522 1521 1521 1520 1519 1518 1517 1517 1517 1525 1521 1518 1513 1508 1504 1503 1500 1499 1499 1499 1498 1495 1492 1489 1487 1481 1482 1480 1473
1560 1560 1560 1559 1558 1557 1556 1554 1552 1549 1546 1543 1540 1537 1534 1531 1528 1524 1522 1522 1521 1521 1520 1519 1519 1518 1520 1522 1521 1517 1513 1507 1504 1502 1500 1499 1498 1497 1496 1495 1491 1489 1486 1492 1480 1479 1473
1561 1561 1560 1560 1559 1558 1557 1555 1553 1550 1547 1543 1540 1537 1534 1531 1528 1524 1523 1523 1522 1520 1520 1519 1520 1519 1524 1523 1519 1517 1514 1507 1505 1501 1498 1497 1497 1496 1497 1498 1502 1494 1506 1489 1478 1475 1471
1561 1562 1561 1561 1560 1559 1557 1556 1553 1551 1547 1544 1541 1537 1534 1531 1528 1524 1523 1523 1521 1521 1521 1521 1522 1525 1526 1526 1522 1518 1513 1507 1505 1501 1496 1496 1495 1497 1501 1504 1523 1500 1494 1486 1483 1467 1466
1562 1562 1562 1561 1560 1559 1558 1556 1554 1551 1548 1544 1541 1538 1534 1531 1527 1525 1523 1522 1525 1524 1523 1528 1530 1529 1529 1526 1521 1517 1513 1508 1505 1503 1504 1499 1502 1506 1501 1499 1497 1497 1495 1489 1472 1466 1463
1562 1562 1562 1562 1561 1560 1558 1556 1554 1551 1548 1545 1541 1538 1535 1531 1527 1525 1524 1520 1523 1527 1529 1530 1529 1529 1527 1523 1521 1519 1516 1511 1509 1510 1506 1506 1506 1499 1496 1494 1493 1492 1492 1480 1462 1461 1460
1562 1562 1562 1562 1561 1560 1558 1556 1554 1551 1548 1545 1541 1538 1535 1530 1529 1525 1523 1523 1523 1525 1528 1530 1529 1528 1526 1524 1522 1520 1517 1512 1509 1509 1510 1513 1502 1497 1496 1493 1491 1490 1488 1475 1470 1443 1450
1561 1562 1562 1562 1562 1560 1558 1556 1554 1551 1548 1545 1541 1539 1535 1530 1530 1527 1524 1523 1524 1525 1531 1535 1530 1531 1527 1523 1523 1522 1519 1518 1513 1512 1508 1507 1498 1497 1496 1493 1491 1487 1476 1469 1458 1458 1456
1561 1562 1562 1562 1561 1560 1559 1557 1555 1551 1548 1545 1541 1539 1534 1530 1530 1526 1527 1524 1523 1526 1536 1533 1532 1532 1530 1529 1528 1525 1521 1516 1518 1514 1515 1512 1502 1497 1496 1492 1489 1483 1477 1459 1449 1446 1462
1561 1561 1561 1562 1561 1560 1559 1557 1554 1551 1548 1544 1542 1539 1536 1532 1529 1527 1524 1524 1525 1532 1549 1535 1536 1535 1535 1530 1529 1527 1524 1521 1518 1517 1512 1509 1498 1495 1494 1491 1486 1482 1475 1452 1445 1453 1486
1560 1561 1561 1561 1561 1560 1559 1557 1554 1551 1548 1544 1542 1539 1535 1532 1530 1526 1524 1524 1530 1542 1540 1543 1545 1541 1538 1536 1531 1529 1528 1531 1534 1535 1521 1512 1502 1496 1493 1492 1486 1486 1481 1472 1493 1479 1476
1559 1560 1560 1561 1561 1559 1558 1557 1554 1551 1548 1545 1541 1540 1537 1533 1531 1527 1525 1526 1546 1554 1557 1552 1549 1542 1539 1540 1538 1534 1534 1541 1535 1540 1537 1538 1518 1502 1496 1500 1504 1494 1496 1501 1498 1474 1459
1558 1559 1559 1560 1560 1559 1558 1556 1554 1550 1547 1544 1541 1540 1537 1535 1532 1528 1526 1552 1565 1565 1563 1559 1551 1548 1547 1546 1547 1543 1542 1546 1541 1538 1544 1544 1520 1502 1499 1495 1498 1497 1502 1491 1490 1481 1472
1556 1558 1558 1560 1559 1559 1558 1556 1553 1550 1547 1543 1541 1539 1538 1536 1533 1531 1533 1558 1564 1563 1561 1559 1562 1557 1564 1555 1553 1553 1546 1543 1540 1534 1534 1537 1526 1501 1496 1495 1496 1499 1498 1499 1503 1488 1472
1555 1557 1558 1559 1558 1558 1557 1556 1553 1550 1546 1543 1541 1540 1540 1537 1536 1534 1556 1565 1563 1562 1561 1562 1560 1564 1569 1564 1553 1554 1553 1541 1536 1533 1530 1534 1541 1509 1503 1505 1509 1503 1505 1503 1498 1483 1478
1553 1555 1556 1557 1557 1557 1556 1555 1552 1550 1546 1543 1542 1542 1542 1539 1540 1548 1561 1561 1562 1561 1560 1559 1558 1561 1565 1558 1560 1551 1545 1541 1537 1533 1536 1529 1532 1526 1506 1501 1503 1504 1510 1504 1493 1489 1483
1551 1553 1555 1555 1556 1556 1556 1554 1552 1550 1547 1543 1543 1544 1544 1541 1553 1559 1558 1560 1561 1560 1560 1560 1560 1559 1557 1559 1565 1549 1542 1537 1535 1533 1533 1528 1537 1529 1524 1511 1501 1504 1507 1506 1497 1488 1483
1549 1551 1552 1554 1555 1555 1555 1554 1552 1550 1547 1545 1545 1547 1547 1546 1553 1557 1563 1564 1562 1561 1560 1560 1559 1558 1558 1556 1553 1549 1544 1538 1535 1530 1528 1526 1535 1538 1535 1518 1505 1504 1508 1503 1500 1493 1491
1546 1549 1550 1552 1553 1554 1554 1553 1552 1550 1548 1547 1547 1551 1552 1559 1558 1558 1560 1564 1563 1562 1561 1559 1559 1558 1562 1565 1553 1547 1543 1540 1534 1531 1529 1529 1537 1524 1513 1505 1502 1508 1509 1503 1500 1495 1495
1544 1547 1548 1550 1551 1552 1553 1552 1551 1549 1548 1548 1548 1550 1554 1557 1558 1559 1561 1563 1563 1563 1562 1561 1560 1558 1557 1562 1556 1554 1547 1545 1542 1533 1532 1529 1532 1519 1513 1495 1503 1498 1504 1504 1499 1495 1495
1541 1544 1546 1548 1550 1551 1551 1551 1550 1549 1548 1548 1548 1549 1550 1558 1558 1560 1562 1561 1562 1562 1561 1560 1559 1557 1554 1551 1548 1542 1541 1541 1539 1539 1534 1534 1531 1525 1516 1497 1491 1497 1514 1507 1502 1498 1497
1538 1540 1543 1546 1548 1549 1550 1550 1549 1549 1549 1548 1547 1548 1549 1559 1556 1557 1559 1559 1561 1561 1562 1558 1557 1556 1551 1545 1538 1531 1530 1532 1532 1531 1532 1533 1532 1525 1520 1505 1523 1506 1502 1504 1501 1499 1495
1535 1537 1540 1543 1546 1548 1548 1549 1549 1549 1548 1548 1547 1548 1548 1555 1554 1557 1557 1558 1558 1557 1558 1556 1556 1555 1550 1543 1542 1539 1536 1532 1529 1529 1529 1527 1528 1532 1530 1516 1507 1507 1508 1503 1503 1498 1493
1531 1534 1537 1541 1543 1546 1547 1548 1548 1548 1548 1548 1547 1547 1547 1550 1555 1555 1556 1558 1560 1560 1557 1555 1554 1552 1549 1546 1547 1557 1552 1542 1539 1533 1528 1528 1527 1531 1524 1525 1512 1528 1509 1498 1491 1494 1492
1527 1529 1533 1537 1540 1543 1545 1546 1547 1547 1548 1548 1548 1548 1547 1549 1552 1554 1555 1556 1557 1557 1558 1556 1554 1552 1551 1552 1553 1558 1555 1546 1553 1546 1548 1541 1541 1541 1528 1530 1521 1519 1510 1500 1509 1511 1500
1522 1524 1527 1531 1536 1539 1542 1543 1545 1546 1547 1548 1548 1547 1548 1548 1551 1552 1554 1555 1556 1556 1559 1556 1557 1555 1554 1560 1560 1563 1564 1556 1557 1544 1547 1556 1554 1546 1535 1543 1535 1518 1513 1521 1524 1511 1505
1516 1520 1522 1527 1530 1535 1539 1541 1542 1544 1545 1546 1547 1547 1548 1548 1551 1552 1552 1553 1554 1555 1555 1556 1557 1556 1556 1560 1561 1561 1556 1555 1560 1558 1542 1552 1547 1551 1542 1530 1522 1522 1521 1521 1518 1511 1503
Wind_Speed
6 7 9 10 11 13 14 16 18 20 21 21 22 21 20 20 20 19 15 14 13 11 11 11 9 5 6 12 11 15 21 23 22 24 14 17 9 11 5 9 15 4 8 18 27 25 23
6 7 9 10 11 13 14 16 18 20 21 22 23 22 21 21 20 18 14 12 9 8 12 12 10 10 14 11 12 15 24 29 25 21 15 14 10 13 9 10 3 8 16 24 26 27 20
5 7 8 8 11 12 15 17 18 20 22 23 24 23 20 20 18 18 13 10 8 6 5 7 8 5 15 16 14 17 27 32 20 14 15 11 6 8 11 6 7 18 14 15 7 19 20
4 5 6 9 11 13 15 17 18 20 22 23 24 23 22 20 17 19 14 8 8 11 11 8 7 4 6 8 16 23 31 33 14 15 16 10 5 12 5 10 9 4 3 7 12 16 14
3 5 6 8 10 13 15 17 19 20 22 24 24 23 22 20 16 18 11 4 10 12 6 12 7 2 4 10 18 24 31 28 18 19 12 7 8 3 6 4 5 3 6 16 14 14 17
3 4 6 8 10 12 15 17 19 20 22 24 24 23 22 20 17 18 9 2 6 15 4 6 8 3 14 18 14 21 32 18 19 21 14 14 3 2 5 6 3 13 15 11 18 20 15
3 3 5 7 10 12 14 16 18 20 22 24 23 22 21 19 16 16 11 1 2 3 22 12 8 4 10 17 7 25 34 17 21 15 8 9 3 3 4 4 7 8 12 15 21 19 19
2 3 5 6 9 11 13 16 18 20 22 23 22 20 20 19 17 19 15 6 6 6 8 7 6 7 12 15 8 20 32 16 10 5 10 5 2 5 13 8 8 9 14 20 21 11 20
1 2 4 5 8 10 13 15 17 20 22 23 22 18 20 20 9 19 17 13 10 7 4 1 7 8 18 16 6 17 28 15 4 4 6 2 7 13 13 7 8 12 16 14 22 33 20
1 2 3 5 7 10 12 14 17 20 22 22 22 18 21 19 5 15 14 8 5 3 4 7 7 7 19 14 4 13 23 13 8 6 7 4 9 17 12 8 8 16 10 22 28 19 8
1 1 2 4 6 9 12 15 17 19 21 22 20 16 22 18 13 20 13 3 5 3 5 5 3 5 20 12 12 19 16 14 4 12 4 6 12 11 3 6 9 17 16 28 26 17 3
2 1 1 3 6 9 12 14 16 18 20 21 19 14 19 19 19 17 10 2 4 4 4 5 4 10 11 9 8 17 11 16 4 5 5 8 15 2 2 9 12 15 16 24 7 3 3
3 3 2 3 6 8 11 13 16 18 20 21 15 12 21 21 19 17 10 1 4 6 6 8 6 9 10 6 6 10 5 10 9 9 18 11 8 6 6 10 3 9 15 8 7 5 4
4 4 3 2 5 8 11 13 15 18 20 20 12 9 20 17 15 15 9 4 10 2 4 5 6 15 5 10 6 9 7 4 5 4 5 6 9 4 13 1 3 5 4 1 6 6 14
6 5 4 1 5 8 10 12 15 18 19 19 9 6 20 13 14 14 4 7 2 2 4 7 10 5 5 7 4 9 5 0 3 1 3 5 6 12 18 11 3 5 7 8 5 9 7
7 6 4 2 4 7 9 12 14 17 19 16 7 3 18 11 12 9 7 5 2 1 5 3 4 5 5 7 7 6 3 4 2 2 1 5 9 6 6 4 4 2 4 6 4 5 9
8 7 4 2 3 6 9 12 14 16 18 13 5 2 14 8 8 11 4 2 1 3 4 2 3 4 2 5 5 3 4 4 2 5 6 3 3 9 7 3 3 3 4 3 3 4 4
9 7 5 3 2 5 8 11 14 15 17 11 3 3 14 5 7 6 3 2 1 2 3 2 2 5 3 4 4 3 3 5 18 13 6 4 3 5 17 1 10 9 3 3 3 4 4
10 9 7 4 2 5 8 10 12 15 16 10 3 4 11 6 3 2 1 1 2 0 2 3 3 4 2 3 4 4 4 12 23 13 3 3 2 6 9 4 2 4 7 5 6 5 2
12 10 8 5 3 4 6 9 11 13 13 9 3 2 8 12 9 5 3 2 3 2 2 2 3 5 3 5 4 7 9 7 25 16 11 12 1 5 6 14 16 5 8 13 4 3 8
13 11 9 7 4 4 6 7 9 10 11 7 4 3 3 2 5 6 4 2 3 4 4 5 3 2 1 2 9 3 6 10 12 7 14 3 2 5 16 18 5 4 6 18 12 4 4
14 13 10 8 6 5 5 6 6 7 8 5 2 3 5 5 4 3 1 1 1 3 1 4 2 6 4 4 6 8 9 4 5 7 6 3 3 13 10 8 7 5 12 18 13 4 5
15 14 12 11 8 6 5 7 6 6 6 2 3 5 4 4 2 4 2 2 2 2 3 2 7 6 5 8 20 28 26 18 17 6 3 2 4 6 5 12 10 2 4 16 14 4 5
17 15 12 10 9 7 6 6 5 4 4 3 4 5 4 2 3 3 3 2 3 4 4 7 9 2 9 28 25 12 9 13 14 13 8 5 3 2 5 8 5 4 4 14 12 0 12
18 16 13 12 12 10 8 6 4 3 3 3 4 3 4 2 4 4 4 1 4 6 4 4 3 11 16 15 4 5 4 3 3 2 3 5 2 3 2 4 4 5 14 18 9 3 18
18 17 15 15 14 12 10 6 5 2 1 2 4 4 4 8 1 3 3 2 2 1 7 2 7 7 12 3 3 2 1 3 5 8 5 9 2 3 3 2 3 2 17 33 1 2 31
21 18 18 19 16 14 11 9 6 4 1 1 3 4 3 5 5 5 3 3 2 1 1 2 8 8 12 2 3 2 3 1 3 5 5 4 4 2 4 3 1 8 17 17 8 9 34
25 23 23 22 19 19 15 12 8 6 3 1 2 3 3 4 5 4 4 4 4 2 3 4 3 5 5 4 2 2 1 3 2 4 2 2 2 3 4 4 4 23 5 5 7 23 27
31 28 25 23 19 21 18 14 10 8 5 2 1 2 3 3 4 3 6 4 5 5 2 1 2 1 1 2 1 1 2 2 3 2 3 3 4 3 4 4 7 14 4 10 19 24 29
Wind_Direction
65 55 45 38 33 28 24 21 17 15 14 12 15 16 10 12 13 12 18 34 43 60 77 84 80 68 73 57 20 350 346 346 347 347 3 359 9 360 1 316 344 292 331 322 316 317 314
60 49 41 37 29 25 20 20 18 15 13 11 13 16 13 14 11 14 27 30 40 59 82 88 82 62 67 65 9 346 350 347 354 356 360 355 344 335 306 317 320 281 304 307 312 312 318
53 42 37 33 30 22 19 20 18 15 12 11 12 12 14 14 10 14 27 29 40 53 30 45 67 41 45 41 356 4 354 349 354 356 342 354 360 347 319 311 303 294 296 282 289 342 322
48 39 30 29 25 20 20 19 17 15 12 11 10 8 13 12 11 15 18 34 80 50 43 65 82 81 81 2 351 9 351 349 19 3 335 340 319 310 276 296 296 299 332 348 314 303 308
56 35 26 27 22 18 19 18 16 14 12 11 9 7 9 8 15 18 15 58 60 21 93 59 69 71 40 345 16 6 350 353 355 3 13 351 320 294 351 13 359 353 301 306 312 305 298
53 32 22 26 23 18 17 16 14 12 12 10 7 5 7 7 18 18 10 56 355 36 101 75 54 58 16 348 10 353 357 5 6 9 12 7 352 52 21 41 307 299 313 286 294 305 308
55 27 20 23 19 19 17 13 12 11 12 9 6 3 5 7 20 15 18 310 82 57 57 72 64 92 330 358 19 4 360 12 11 21 16 323 43 44 322 269 254 280 291 286 290 301 298
48 11 21 19 19 19 15 11 8 9 10 8 6 5 3 7 11 13 27 84 82 113 93 64 58 25 8 2 339 3 355 12 2 345 7 357 121 3 341 322 312 309 308 296 292 290 301
17 3 14 14 20 17 12 9 5 6 7 6 7 8 3 3 18 6 17 63 105 113 103 56 34 13 3 331 344 1 2 348 323 338 341 200 267 335 342 327 325 316 300 295 297 310 297
284 359 6 15 18 14 9 6 5 4 3 4 6 6 9 8 7 11 19 44 136 100 94 340 353 11 353 342 26 360 3 2 347 321 339 312 325 321 317 320 336 315 297 304 305 317 303
262 342 358 10 13 13 7 3 3 3 360 2 3 8 11 11 13 9 6 42 149 123 40 321 0 354 1 51 324 357 349 2 6 321 68 272 295 309 310 324 326 298 321 308 304 292 91
239 272 319 0 10 14 6 1 360 0 356 360 359 10 11 18 10 3 2 90 141 53 322 343 20 354 6 350 8 351 31 24 21 330 324 289 294 233 41 322 306 334 327 306 320 66 25
230 257 278 357 7 10 5 358 357 357 356 355 358 17 12 17 4 5 357 54 33 75 6 339 340 342 335 329 356 0 20 37 40 1 345 326 317 315 25 333 299 352 352 345 2 5 254
226 245 266 352 359 7 3 356 355 355 356 351 2 30 19 11 8 358 352 55 61 35 339 353 333 311 39 22 349 347 4 29 16 92 310 355 328 22 334 280 254 331 43 335 305 316 304
229 239 259 326 2 360 359 355 352 356 352 351 4 39 21 15 11 360 19 49 167 312 306 324 315 22 346 13 343 6 15 174 236 61 51 340 262 316 304 339 81 335 2 289 261 260 273
227 242 249 307 357 356 351 352 354 355 350 353 8 49 13 18 14 15 65 107 162 310 329 332 11 49 338 334 4 14 336 244 270 275 49 259 294 274 324 359 18 81 326 344 346 321 312
228 239 241 271 343 347 350 350 355 354 351 351 7 55 10 11 21 51 88 117 69 343 3 13 347 332 279 312 310 284 251 282 270 292 298 179 146 289 328 7 267 344 2 302 248 280 308
224 233 229 237 325 339 345 352 354 352 354 353 24 54 9 12 43 52 81 105 170 285 26 311 254 175 196 296 296 292 284 215 359 2 323 234 223 291 298 223 133 94 337 295 316 317 281
222 228 226 228 294 329 343 352 353 353 357 2 56 22 17 30 76 41 83 118 189 40 4 30 336 34 279 289 339 264 304 323 357 342 261 289 298 315 339 346 272 44 11 336 293 275 311
221 226 225 225 262 318 336 346 355 354 1 16 38 30 29 55 77 111 89 4 350 67 72 343 272 299 348 306 228 288 296 309 333 319 352 351 206 181 261 275 294 313 358 14 330 303 306
222 224 224 222 245 294 324 340 351 354 7 19 52 77 40 13 41 94 104 180 331 12 11 338 328 41 155 292 308 260 322 329 322 8 356 94 259 269 288 285 272 169 3 13 348 309 311
224 223 223 220 232 262 300 324 338 3 5 16 67 128 100 103 136 112 122 249 90 318 157 309 331 302 291 230 229 289 313 346 272 317 327 324 282 316 302 304 172 204 17 3 347 330 291
226 224 223 222 229 250 289 307 333 6 19 53 104 129 139 156 163 88 200 175 212 335 281 265 340 323 305 291 305 291 281 261 254 276 294 332 301 326 278 315 323 45 356 353 348 1 323
226 224 222 228 235 246 268 293 324 354 31 57 114 134 142 225 139 161 140 152 225 249 212 273 311 335 295 314 314 304 275 252 263 273 244 292 291 248 289 337 12 282 313 336 339 320 3
229 221 211 227 235 242 253 272 298 331 36 59 90 125 137 121 126 134 157 160 303 334 265 260 302 317 320 317 357 354 2 5 305 218 33 22 322 311 316 301 256 12 340 333 346 290 12
226 221 219 224 230 237 237 253 261 261 79 71 80 91 131 133 248 143 155 153 180 307 343 232 320 343 354 319 24 45 331 295 328 335 13 340 339 146 330 299 291 294 331 329 23 248 3
223 223 221 223 228 229 233 251 249 240 174 111 86 77 121 111 147 169 168 169 173 175 185 332 342 350 6 29 22 31 315 9 356 314 323 343 342 3 326 292 284 346 358 353 41 306 330
225 224 228 232 224 222 228 237 234 229 215 181 90 69 61 127 148 182 187 174 167 179 132 325 24 11 16 42 58 286 92 260 41 264 280 178 30 322 336 345 333 360 4 67 283 311 323
229 226 229 234 234 222 220 222 222 219 214 218 124 59 48 117 132 193 223 232 245 235 209 165 151 166 62 79 12 19 307 1 171 285 16 352 172 216 181 247 346 354 73 1 349 334 330